Time,TemperatureF,DewpointF,PressureIn,WindDirection,WindDirectionDegrees,WindSpeedMPH,WindSpeedGustMPH,Humidity,HourlyPrecipIn,Conditions,Clouds,dailyrainin,SoftwareType,DateUTC
2013-03-25 00:04:00,27.9,9.8,30.03,ENE,61,5.4,8.7,46,0.00,,,0.00,VWS V12.08,2013-03-24 23:04:00,
2013-03-25 00:09:00,27.9,9.8,30.03,East,91,5.4,8.7,46,0.00,,,0.00,VWS V12.08,2013-03-24 23:09:00,
2013-03-25 00:14:00,27.9,9.8,30.03,East,94,3.6,8.3,46,0.00,,,0.00,VWS V12.08,2013-03-24 23:14:00,
2013-03-25 00:19:00,27.9,9.8,30.03,NE,56,2.7,8.3,46,0.00,,,0.00,VWS V12.08,2013-03-24 23:19:00,
2013-03-25 00:24:00,27.7,8.6,30.03,ENE,59,5.8,8.3,44,0.00,,,0.00,VWS V12.08,2013-03-24 23:24:00,
2013-03-25 00:29:00,27.7,8.6,30.03,NE,47,5.8,9.2,44,0.00,,,0.00,VWS V12.08,2013-03-24 23:29:00,
2013-03-25 00:34:00,27.7,8.6,30.03,East,90,5.4,8.1,44,0.00,,,0.00,VWS V12.08,2013-03-24 23:34:00,
2013-03-25 00:39:00,27.5,8.5,30.03,NE,44,4.9,8.7,44,0.00,,,0.00,VWS V12.08,2013-03-24 23:39:00,
2013-03-25 00:44:00,27.5,8.5,30.03,East,81,2.7,7.6,44,0.00,,,0.00,VWS V12.08,2013-03-24 23:44:00,
2013-03-25 00:49:00,27.3,8.3,30.03,ENE,71,3.1,8.7,44,0.00,,,0.00,VWS V12.08,2013-03-24 23:49:00,
2013-03-25 00:54:00,27.3,8.3,30.03,North,6,4.9,8.7,44,0.00,,,0.00,VWS V12.08,2013-03-24 23:54:00,
2013-03-25 00:59:00,27.3,8.3,30.03,NNE,27,4.9,8.7,44,0.00,,,0.00,VWS V12.08,2013-03-24 23:59:00,
2013-03-25 01:04:00,27.3,8.3,30.03,North,0,3.6,5.8,44,0.00,,,0.00,VWS V12.08,2013-03-25 00:04:00,
2013-03-25 01:09:00,27.5,8.5,30.03,NNE,14,5.8,8.1,44,0.00,,,0.00,VWS V12.08,2013-03-25 00:09:00,
2013-03-25 01:14:00,27.5,6.9,30.03,ESE,102,8.3,9.2,41,0.00,,,0.00,VWS V12.08,2013-03-25 00:14:00,
2013-03-25 01:19:00,27.5,6.9,30.03,East,84,4.9,11.0,41,0.00,,,0.00,VWS V12.08,2013-03-25 00:19:00,
2013-03-25 01:24:00,27.5,6.9,30.03,ENE,67,3.1,8.3,41,0.00,,,0.00,VWS V12.08,2013-03-25 00:24:00,
2013-03-25 01:29:00,27.5,6.9,30.03,ENE,59,3.6,8.3,41,0.00,,,0.00,VWS V12.08,2013-03-25 00:29:00,
2013-03-25 01:34:00,27.5,6.9,30.03,North,357,3.6,6.3,41,0.00,,,0.00,VWS V12.08,2013-03-25 00:34:00,
2013-03-25 01:39:00,27.5,6.9,30.03,North,11,4.0,6.7,41,0.00,,,0.00,VWS V12.08,2013-03-25 00:39:00,
2013-03-25 01:44:00,27.3,6.7,30.03,ENE,67,4.0,8.1,41,0.00,,,0.00,VWS V12.08,2013-03-25 00:44:00,
2013-03-25 01:49:00,27.3,6.7,30.00,North,5,3.6,8.3,41,0.00,,,0.00,VWS V12.08,2013-03-25 00:49:00,
2013-03-25 01:54:00,27.3,6.7,30.00,ENE,73,3.6,6.3,41,0.00,,,0.00,VWS V12.08,2013-03-25 00:54:00,
2013-03-25 01:59:00,27.3,6.7,30.00,NNE,31,3.1,7.2,41,0.00,,,0.00,VWS V12.08,2013-03-25 00:59:00,
2013-03-25 02:04:00,27.3,6.7,30.00,NNE,16,5.4,5.8,41,0.00,,,0.00,VWS V12.08,2013-03-25 01:04:00,
2013-03-25 02:09:00,27.3,6.7,30.00,North,8,4.9,10.1,41,0.00,,,0.00,VWS V12.08,2013-03-25 01:09:00,
2013-03-25 02:14:00,27.3,6.7,30.00,NE,38,4.9,8.1,41,0.00,,,0.00,VWS V12.08,2013-03-25 01:14:00,
2013-03-25 02:19:00,27.1,8.1,30.00,East,79,5.8,8.3,44,0.00,,,0.00,VWS V12.08,2013-03-25 01:19:00,
2013-03-25 02:24:00,27.1,8.1,30.00,NNE,27,3.6,8.7,44,0.00,,,0.00,VWS V12.08,2013-03-25 01:24:00,
2013-03-25 02:29:00,27.1,8.1,30.00,NE,54,2.7,8.7,44,0.00,,,0.00,VWS V12.08,2013-03-25 01:29:00,
2013-03-25 02:34:00,27.1,8.1,30.00,NE,45,7.6,7.6,44,0.00,,,0.00,VWS V12.08,2013-03-25 01:34:00,
2013-03-25 02:39:00,27.1,8.1,30.00,ENE,71,3.6,7.6,44,0.00,,,0.00,VWS V12.08,2013-03-25 01:39:00,
2013-03-25 02:44:00,27.1,8.1,30.00,NE,41,2.7,6.3,44,0.00,,,0.00,VWS V12.08,2013-03-25 01:44:00,
2013-03-25 02:49:00,27.1,8.1,30.00,NE,52,4.9,8.7,44,0.00,,,0.00,VWS V12.08,2013-03-25 01:49:00,
2013-03-25 02:54:00,27.1,8.1,30.00,ENE,64,8.7,8.7,44,0.00,,,0.00,VWS V12.08,2013-03-25 01:54:00,
2013-03-25 02:59:00,27.1,8.1,30.00,ENE,64,5.4,8.7,44,0.00,,,0.00,VWS V12.08,2013-03-25 01:59:00,
2013-03-25 03:04:00,27.1,8.1,29.97,NE,43,4.0,8.7,44,0.00,,,0.00,VWS V12.08,2013-03-25 02:04:00,
2013-03-25 03:09:00,27.1,8.1,29.97,NNE,33,2.7,8.7,44,0.00,,,0.00,VWS V12.08,2013-03-25 02:09:00,
2013-03-25 03:14:00,27.1,8.1,29.97,East,83,5.8,6.3,44,0.00,,,0.00,VWS V12.08,2013-03-25 02:14:00,
2013-03-25 03:19:00,27.0,8.0,29.97,NE,43,8.7,8.7,44,0.00,,,0.00,VWS V12.08,2013-03-25 02:19:00,
2013-03-25 03:24:00,27.0,8.0,29.97,ENE,71,8.3,8.7,44,0.00,,,0.00,VWS V12.08,2013-03-25 02:24:00,
2013-03-25 03:29:00,27.0,8.0,29.97,NNE,29,2.7,10.5,44,0.00,,,0.00,VWS V12.08,2013-03-25 02:29:00,
2013-03-25 03:34:00,27.0,6.4,29.97,East,98,2.7,7.6,41,0.00,,,0.00,VWS V12.08,2013-03-25 02:34:00,
2013-03-25 03:39:00,27.0,6.4,29.97,ENE,74,4.0,8.3,41,0.00,,,0.00,VWS V12.08,2013-03-25 02:39:00,
2013-03-25 03:44:00,27.0,6.4,29.97,NE,53,6.3,10.5,41,0.00,,,0.00,VWS V12.08,2013-03-25 02:44:00,
2013-03-25 03:49:00,27.0,6.4,29.97,NE,45,5.8,10.5,41,0.00,,,0.00,VWS V12.08,2013-03-25 02:49:00,
2013-03-25 03:54:00,27.0,6.4,29.97,NE,43,6.3,8.1,41,0.00,,,0.00,VWS V12.08,2013-03-25 02:54:00,
2013-03-25 03:59:00,27.0,6.4,29.97,East,96,5.8,10.1,41,0.00,,,0.00,VWS V12.08,2013-03-25 02:59:00,
2013-03-25 04:04:00,27.1,6.6,29.97,ESE,114,8.7,8.7,41,0.00,,,0.00,VWS V12.08,2013-03-25 03:04:00,
2013-03-25 04:09:00,27.1,6.6,29.97,NE,50,8.1,8.7,41,0.00,,,0.00,VWS V12.08,2013-03-25 03:09:00,
2013-03-25 04:14:00,27.1,6.6,29.97,ESE,103,3.1,10.1,41,0.00,,,0.00,VWS V12.08,2013-03-25 03:14:00,
2013-03-25 04:19:00,27.1,6.6,29.97,East,99,5.4,10.5,41,0.00,,,0.00,VWS V12.08,2013-03-25 03:19:00,
2013-03-25 04:24:00,27.1,6.6,29.97,ENE,73,4.0,8.7,41,0.00,,,0.00,VWS V12.08,2013-03-25 03:24:00,
2013-03-25 04:29:00,27.0,6.4,29.97,East,82,4.9,10.1,41,0.00,,,0.00,VWS V12.08,2013-03-25 03:29:00,
2013-03-25 04:34:00,27.0,6.4,29.97,ENE,71,5.8,8.7,41,0.00,,,0.00,VWS V12.08,2013-03-25 03:34:00,
2013-03-25 04:39:00,27.0,6.4,29.97,ENE,75,6.3,8.7,41,0.00,,,0.00,VWS V12.08,2013-03-25 03:39:00,
2013-03-25 04:44:00,27.0,6.4,29.97,NNE,32,5.8,5.8,41,0.00,,,0.00,VWS V12.08,2013-03-25 03:44:00,
2013-03-25 04:49:00,27.0,6.4,29.97,ENE,78,7.6,7.6,41,0.00,,,0.00,VWS V12.08,2013-03-25 03:49:00,
2013-03-25 04:54:00,27.0,6.4,29.97,ENE,67,4.0,8.3,41,0.00,,,0.00,VWS V12.08,2013-03-25 03:54:00,
2013-03-25 04:59:00,27.0,6.4,29.97,NNE,22,7.6,8.3,41,0.00,,,0.00,VWS V12.08,2013-03-25 03:59:00,
2013-03-25 05:00:00,27.0,6.4,29.97,NNE,26,5.8,10.1,41,0.00,,,0.39,VWS V12.08,2013-03-25 04:00:00,
2013-03-25 05:05:00,27.0,6.4,29.97,NNE,15,2.7,8.1,41,0.00,,,0.00,VWS V12.08,2013-03-25 04:05:00,
2013-03-25 05:10:00,27.0,6.4,29.97,NNE,15,4.0,8.1,41,0.00,,,0.00,VWS V12.08,2013-03-25 04:10:00,
2013-03-25 05:15:00,27.0,6.4,29.97,NNE,29,5.4,9.6,41,0.00,,,0.00,VWS V12.08,2013-03-25 04:15:00,
2013-03-25 05:20:00,27.0,6.4,29.97,NE,43,5.4,9.6,41,0.00,,,0.00,VWS V12.08,2013-03-25 04:20:00,
2013-03-25 05:25:00,27.0,6.4,29.97,ENE,63,6.3,8.7,41,0.00,,,0.00,VWS V12.08,2013-03-25 04:25:00,
2013-03-25 05:30:00,27.0,6.4,29.97,ENE,78,4.9,10.1,41,0.00,,,0.00,VWS V12.08,2013-03-25 04:30:00,
2013-03-25 05:35:00,27.0,6.4,29.97,East,91,3.1,10.5,41,0.00,,,0.00,VWS V12.08,2013-03-25 04:35:00,
2013-03-25 05:40:00,27.0,6.4,29.97,East,79,8.3,10.5,41,0.00,,,0.00,VWS V12.08,2013-03-25 04:40:00,
2013-03-25 05:45:00,27.0,6.4,29.97,East,81,6.7,10.1,41,0.00,,,0.00,VWS V12.08,2013-03-25 04:45:00,
2013-03-25 05:50:00,27.0,6.4,29.94,North,357,5.8,12.8,41,0.00,,,0.00,VWS V12.08,2013-03-25 04:50:00,
2013-03-25 05:55:00,27.0,6.4,29.94,East,83,5.8,10.5,41,0.00,,,0.00,VWS V12.08,2013-03-25 04:55:00,
2013-03-25 06:00:00,27.0,6.4,29.94,NNE,23,7.6,10.5,41,0.00,,,0.00,VWS V12.08,2013-03-25 05:00:00,
2013-03-25 06:05:00,27.0,6.4,29.94,East,93,7.6,10.1,41,0.00,,,0.00,VWS V12.08,2013-03-25 05:05:00,
2013-03-25 06:10:00,27.0,8.0,29.94,ENE,62,5.8,10.1,44,0.00,,,0.00,VWS V12.08,2013-03-25 05:10:00,
2013-03-25 06:15:00,27.0,8.0,29.94,NE,37,7.6,8.1,44,0.00,,,0.00,VWS V12.08,2013-03-25 05:15:00,
2013-03-25 06:20:00,27.1,8.1,29.94,East,88,8.7,8.7,44,0.00,,,0.00,VWS V12.08,2013-03-25 05:20:00,
2013-03-25 06:24:00,27.1,8.1,29.94,NE,34,5.4,8.7,44,0.00,,,0.00,VWS V12.08,2013-03-25 05:24:00,
2013-03-25 06:29:00,27.1,8.1,29.94,NE,38,5.4,15.0,44,0.00,,,0.00,VWS V12.08,2013-03-25 05:29:00,
2013-03-25 06:34:00,27.3,8.3,29.94,North,4,4.0,11.0,44,0.00,,,0.00,VWS V12.08,2013-03-25 05:34:00,
2013-03-25 06:39:00,27.3,8.3,29.94,NE,38,4.0,11.0,44,0.00,,,0.00,VWS V12.08,2013-03-25 05:39:00,
2013-03-25 06:44:00,27.5,8.5,29.94,NNE,19,3.6,11.0,44,0.00,,,0.00,VWS V12.08,2013-03-25 05:44:00,
2013-03-25 06:49:00,27.5,6.9,29.94,ENE,68,6.3,13.2,41,0.00,,,0.00,VWS V12.08,2013-03-25 05:49:00,
2013-03-25 06:54:00,27.7,7.1,29.94,NNE,24,11.9,11.9,41,0.00,,,0.00,VWS V12.08,2013-03-25 05:54:00,
2013-03-25 06:59:00,27.7,7.1,29.94,NE,37,3.6,11.9,41,0.00,,,0.00,VWS V12.08,2013-03-25 05:59:00,
2013-03-25 07:04:00,27.9,7.2,29.94,ESE,112,7.6,10.5,41,0.00,,,0.00,VWS V12.08,2013-03-25 06:04:00,
2013-03-25 07:09:00,27.9,7.2,29.94,North,2,6.3,12.3,41,0.00,,,0.00,VWS V12.08,2013-03-25 06:09:00,
2013-03-25 07:14:00,28.0,7.4,29.94,NNE,24,8.1,11.0,41,0.00,,,0.00,VWS V12.08,2013-03-25 06:14:00,
2013-03-25 07:19:00,28.0,7.4,29.94,ENE,77,8.3,11.0,41,0.00,,,0.00,VWS V12.08,2013-03-25 06:19:00,
2013-03-25 07:24:00,28.2,7.6,29.94,NE,46,5.4,10.1,41,0.00,,,0.00,VWS V12.08,2013-03-25 06:24:00,
2013-03-25 07:29:00,28.2,7.6,29.94,NNE,12,11.0,11.9,41,0.00,,,0.00,VWS V12.08,2013-03-25 06:29:00,
2013-03-25 07:34:00,28.4,7.7,29.94,NE,35,6.3,8.7,41,0.00,,,0.00,VWS V12.08,2013-03-25 06:34:00,
2013-03-25 07:39:00,28.4,7.7,29.94,ENE,74,6.3,10.1,41,0.00,,,0.00,VWS V12.08,2013-03-25 06:39:00,
2013-03-25 07:44:00,28.6,7.9,29.94,NNE,25,6.3,11.9,41,0.00,,,0.00,VWS V12.08,2013-03-25 06:44:00,
2013-03-25 07:49:00,28.6,7.9,29.94,NE,42,6.3,12.8,41,0.00,,,0.00,VWS V12.08,2013-03-25 06:49:00,
2013-03-25 07:54:00,28.6,7.9,29.94,NNE,29,7.6,8.7,41,0.00,,,0.00,VWS V12.08,2013-03-25 06:54:00,
2013-03-25 07:59:00,28.8,8.0,29.94,NE,43,8.3,10.1,41,0.00,,,0.00,VWS V12.08,2013-03-25 06:59:00,
2013-03-25 08:04:00,28.9,8.2,29.94,ENE,76,7.6,13.2,41,0.00,,,0.00,VWS V12.08,2013-03-25 07:04:00,
2013-03-25 08:10:00,29.1,8.4,29.94,NNE,30,3.6,13.2,41,0.00,,,0.00,VWS V12.08,2013-03-25 07:10:00,
2013-03-25 08:15:00,29.5,8.7,29.94,NE,46,6.3,8.7,41,0.00,,,0.00,VWS V12.08,2013-03-25 07:15:00,
2013-03-25 08:20:00,29.5,8.7,29.94,East,81,6.7,8.7,41,0.00,,,0.00,VWS V12.08,2013-03-25 07:20:00,
2013-03-25 08:25:00,29.7,8.9,29.94,East,87,14.1,14.1,41,0.00,,,0.00,VWS V12.08,2013-03-25 07:25:00,
2013-03-25 08:30:00,29.7,8.9,29.94,ESE,102,8.3,14.1,41,0.00,,,0.00,VWS V12.08,2013-03-25 07:30:00,
2013-03-25 08:35:00,29.5,8.7,29.94,ESE,104,6.3,11.0,41,0.00,,,0.00,VWS V12.08,2013-03-25 07:35:00,
2013-03-25 08:40:00,29.7,8.9,29.94,NE,43,6.3,11.0,41,0.00,,,0.00,VWS V12.08,2013-03-25 07:40:00,
2013-03-25 08:45:00,29.7,8.9,29.94,NE,37,6.3,12.8,41,0.00,,,0.00,VWS V12.08,2013-03-25 07:45:00,
2013-03-25 08:50:00,29.8,9.0,29.91,NE,53,8.3,12.8,41,0.00,,,0.00,VWS V12.08,2013-03-25 07:50:00,
2013-03-25 08:55:00,29.8,9.0,29.91,NNE,32,8.7,12.3,41,0.00,,,0.00,VWS V12.08,2013-03-25 07:55:00,
2013-03-25 09:00:00,30.0,9.2,29.91,ENE,62,8.3,12.3,41,0.00,,,0.00,VWS V12.08,2013-03-25 08:00:00,
2013-03-25 09:04:00,30.0,9.2,29.91,NE,46,5.8,10.1,41,0.00,,,0.00,VWS V12.08,2013-03-25 08:04:00,
2013-03-25 09:09:00,30.2,9.4,29.91,ENE,75,8.1,10.1,41,0.00,,,0.00,VWS V12.08,2013-03-25 08:09:00,
2013-03-25 09:14:00,30.2,9.4,29.91,NE,37,7.2,10.5,41,0.00,,,0.00,VWS V12.08,2013-03-25 08:14:00,
2013-03-25 09:19:00,30.4,9.5,29.91,NNE,18,3.1,10.5,41,0.00,,,0.00,VWS V12.08,2013-03-25 08:19:00,
2013-03-25 09:24:00,30.6,9.7,29.91,NE,39,4.9,11.0,41,0.00,,,0.00,VWS V12.08,2013-03-25 08:24:00,
2013-03-25 09:29:00,30.7,9.8,29.91,ENE,68,4.5,14.1,41,0.00,,,0.00,VWS V12.08,2013-03-25 08:29:00,
2013-03-25 09:34:00,31.1,10.2,29.91,NE,46,6.3,8.3,41,0.00,,,0.00,VWS V12.08,2013-03-25 08:34:00,
2013-03-25 09:39:00,31.5,10.5,29.91,ENE,76,3.1,11.0,41,0.00,,,0.00,VWS V12.08,2013-03-25 08:39:00,
2013-03-25 09:44:00,31.6,10.6,29.91,East,81,9.2,12.3,41,0.00,,,0.00,VWS V12.08,2013-03-25 08:44:00,
2013-03-25 09:49:00,31.8,10.8,29.91,East,98,6.3,12.3,41,0.00,,,0.00,VWS V12.08,2013-03-25 08:49:00,
2013-03-25 09:54:00,32.0,11.0,29.91,NE,52,9.6,10.5,41,0.00,,,0.00,VWS V12.08,2013-03-25 08:54:00,
2013-03-25 09:59:00,32.0,11.0,29.91,East,85,5.4,10.5,41,0.00,,,0.00,VWS V12.08,2013-03-25 08:59:00,
2013-03-25 10:04:00,32.2,11.1,29.91,NNE,22,6.3,10.5,41,0.00,,,0.00,VWS V12.08,2013-03-25 09:04:00,
2013-03-25 10:09:00,32.2,11.1,29.91,ENE,78,5.8,10.5,41,0.00,,,0.00,VWS V12.08,2013-03-25 09:09:00,
2013-03-25 10:14:00,32.2,11.1,29.91,NNE,20,5.8,13.2,41,0.00,,,0.00,VWS V12.08,2013-03-25 09:14:00,
2013-03-25 10:19:00,32.2,11.1,29.88,East,83,8.1,13.2,41,0.00,,,0.00,VWS V12.08,2013-03-25 09:19:00,
2013-03-25 10:24:00,32.2,11.1,29.88,NNE,31,7.6,10.5,41,0.00,,,0.00,VWS V12.08,2013-03-25 09:24:00,
2013-03-25 10:29:00,32.2,11.1,29.88,East,85,4.9,12.3,41,0.00,,,0.00,VWS V12.08,2013-03-25 09:29:00,
2013-03-25 10:34:00,32.2,11.1,29.85,NE,54,5.4,14.5,41,0.00,,,0.00,VWS V12.08,2013-03-25 09:34:00,
2013-03-25 10:39:00,32.2,11.1,29.85,ESE,114,8.3,14.5,41,0.00,,,0.00,VWS V12.08,2013-03-25 09:39:00,
2013-03-25 10:44:00,32.5,11.5,29.85,ESE,106,4.0,10.5,41,0.00,,,0.00,VWS V12.08,2013-03-25 09:44:00,
2013-03-25 10:49:00,32.5,11.5,29.85,East,79,10.1,11.4,41,0.00,,,0.00,VWS V12.08,2013-03-25 09:49:00,
2013-03-25 10:54:00,32.7,11.6,29.85,NE,53,10.1,12.3,41,0.00,,,0.00,VWS V12.08,2013-03-25 09:54:00,
2013-03-25 10:59:00,32.9,11.8,29.85,ENE,58,5.8,12.3,41,0.00,,,0.00,VWS V12.08,2013-03-25 09:59:00,
2013-03-25 11:04:00,33.1,12.0,29.85,ENE,68,4.9,11.0,41,0.00,,,0.00,VWS V12.08,2013-03-25 10:04:00,
2013-03-25 11:09:00,33.3,12.1,29.85,NE,50,5.4,11.0,41,0.00,,,0.00,VWS V12.08,2013-03-25 10:09:00,
2013-03-25 11:14:00,33.3,12.1,29.85,ENE,70,5.8,10.5,41,0.00,,,0.00,VWS V12.08,2013-03-25 10:14:00,
2013-03-25 11:19:00,33.4,12.3,29.85,NNE,21,8.3,11.9,41,0.00,,,0.00,VWS V12.08,2013-03-25 10:19:00,
2013-03-25 11:24:00,33.4,12.3,29.85,NNW,342,6.3,11.4,41,0.00,,,0.00,VWS V12.08,2013-03-25 10:24:00,
2013-03-25 11:29:00,33.4,12.3,29.85,NE,44,12.3,12.3,41,0.00,,,0.00,VWS V12.08,2013-03-25 10:29:00,
2013-03-25 11:34:00,33.4,12.3,29.85,North,357,5.8,10.1,41,0.00,,,0.00,VWS V12.08,2013-03-25 10:34:00,
2013-03-25 11:39:00,33.4,12.3,29.85,ENE,71,6.7,13.2,41,0.00,,,0.00,VWS V12.08,2013-03-25 10:39:00,
2013-03-25 11:44:00,33.4,12.3,29.85,East,97,5.4,15.0,41,0.00,,,0.00,VWS V12.08,2013-03-25 10:44:00,
2013-03-25 11:49:00,33.4,12.3,29.85,NNE,22,5.4,15.0,41,0.00,,,0.00,VWS V12.08,2013-03-25 10:49:00,
2013-03-25 11:54:00,33.4,12.3,29.85,ENE,68,5.8,12.8,41,0.00,,,0.00,VWS V12.08,2013-03-25 10:54:00,
2013-03-25 11:59:00,33.4,12.3,29.85,ENE,57,7.6,12.8,41,0.00,,,0.00,VWS V12.08,2013-03-25 10:59:00,
2013-03-25 12:04:00,33.6,12.4,29.83,East,89,7.6,11.0,41,0.00,,,0.00,VWS V12.08,2013-03-25 11:04:00,
2013-03-25 12:09:00,33.6,12.4,29.83,ESE,106,12.3,13.2,41,0.00,,,0.00,VWS V12.08,2013-03-25 11:09:00,
2013-03-25 12:14:00,33.6,12.4,29.83,East,85,7.6,11.0,41,0.00,,,0.00,VWS V12.08,2013-03-25 11:14:00,
2013-03-25 12:19:00,33.8,13.7,29.83,NE,50,6.3,11.0,43,0.00,,,0.00,VWS V12.08,2013-03-25 11:19:00,
2013-03-25 12:24:00,34.0,12.2,29.83,North,357,6.7,10.1,40,0.00,,,0.00,VWS V12.08,2013-03-25 11:24:00,
2013-03-25 12:29:00,34.0,12.2,29.83,ESE,120,8.1,11.0,40,0.00,,,0.00,VWS V12.08,2013-03-25 11:29:00,
2013-03-25 12:34:00,34.0,12.2,29.83,East,99,5.4,10.1,40,0.00,,,0.00,VWS V12.08,2013-03-25 11:34:00,
2013-03-25 12:39:00,34.2,12.4,29.83,East,94,5.8,10.5,40,0.00,,,0.00,VWS V12.08,2013-03-25 11:39:00,
2013-03-25 12:44:00,34.3,12.5,29.83,NE,48,4.9,12.3,40,0.00,,,0.00,VWS V12.08,2013-03-25 11:44:00,
2013-03-25 12:49:00,34.3,12.5,29.83,NE,44,4.5,12.3,40,0.00,,,0.00,VWS V12.08,2013-03-25 11:49:00,
2013-03-25 12:54:00,34.3,12.5,29.83,ENE,58,5.8,11.4,40,0.00,,,0.00,VWS V12.08,2013-03-25 11:54:00,
2013-03-25 12:59:00,34.3,12.5,29.83,East,89,12.3,12.3,40,0.00,,,0.00,VWS V12.08,2013-03-25 11:59:00,
2013-03-25 13:04:00,34.3,12.5,29.83,ENE,77,6.3,11.0,40,0.00,,,0.00,VWS V12.08,2013-03-25 12:04:00,
2013-03-25 13:09:00,34.5,12.7,29.83,East,84,5.4,11.0,40,0.00,,,0.00,VWS V12.08,2013-03-25 12:09:00,
2013-03-25 13:14:00,34.5,14.3,29.83,East,82,4.0,11.0,43,0.00,,,0.00,VWS V12.08,2013-03-25 12:14:00,
2013-03-25 13:19:00,34.5,14.3,29.85,ESE,103,11.4,11.4,43,0.00,,,0.00,VWS V12.08,2013-03-25 12:19:00,
2013-03-25 13:24:00,34.7,12.9,29.85,ESE,115,8.7,9.6,40,0.00,,,0.00,VWS V12.08,2013-03-25 12:24:00,
2013-03-25 13:29:00,34.5,12.7,29.85,ENE,72,5.8,11.0,40,0.00,,,0.00,VWS V12.08,2013-03-25 12:29:00,
2013-03-25 13:34:00,34.5,12.7,29.83,East,83,8.3,10.5,40,0.00,,,0.00,VWS V12.08,2013-03-25 12:34:00,
2013-03-25 13:39:00,34.5,12.7,29.83,East,81,5.4,11.9,40,0.00,,,0.00,VWS V12.08,2013-03-25 12:39:00,
2013-03-25 13:45:00,34.5,12.7,29.83,East,97,4.0,8.7,40,0.00,,,0.00,VWS V12.08,2013-03-25 12:45:00,
2013-03-25 13:50:00,34.3,12.5,29.83,East,95,8.3,8.3,40,0.00,,,0.00,VWS V12.08,2013-03-25 12:50:00,
2013-03-25 13:55:00,34.3,14.2,29.83,East,89,6.3,11.0,43,0.00,,,0.00,VWS V12.08,2013-03-25 12:55:00,
2013-03-25 14:00:00,34.2,14.0,29.83,ENE,61,4.0,4.0,43,0.00,,,0.00,VWS V12.08,2013-03-25 13:00:00,
2013-03-25 14:05:00,34.2,14.0,29.83,ENE,77,4.9,11.0,43,0.00,,,0.00,VWS V12.08,2013-03-25 13:05:00,
2013-03-25 14:10:00,34.2,14.0,29.83,East,89,7.6,8.1,43,0.00,,,0.00,VWS V12.08,2013-03-25 13:10:00,
2013-03-25 14:15:00,34.0,13.9,29.83,ESE,112,7.6,11.0,43,0.00,,,0.00,VWS V12.08,2013-03-25 13:15:00,
2013-03-25 14:20:00,34.0,13.9,29.83,ENE,62,11.4,13.6,43,0.00,,,0.00,VWS V12.08,2013-03-25 13:20:00,
2013-03-25 14:25:00,33.6,15.1,29.83,ENE,64,8.7,14.5,46,0.00,,,0.00,VWS V12.08,2013-03-25 13:25:00,
2013-03-25 14:30:00,33.4,14.9,29.83,ENE,69,8.1,14.5,46,0.00,,,0.00,VWS V12.08,2013-03-25 13:30:00,
2013-03-25 14:35:00,33.3,15.7,29.80,ENE,74,10.1,12.8,48,0.00,,,0.00,VWS V12.08,2013-03-25 13:35:00,
2013-03-25 14:40:00,33.1,15.5,29.80,SE,133,5.8,12.8,48,0.00,,,0.00,VWS V12.08,2013-03-25 13:40:00,
2013-03-25 14:45:00,32.9,15.4,29.80,NNE,16,8.1,12.8,48,0.00,,,0.00,VWS V12.08,2013-03-25 13:45:00,
2013-03-25 14:50:00,32.5,15.5,29.80,ENE,78,7.6,12.8,49,0.00,,,0.00,VWS V12.08,2013-03-25 13:50:00,
2013-03-25 14:55:00,32.4,15.8,29.80,East,80,10.5,13.2,50,0.00,,,0.00,VWS V12.08,2013-03-25 13:55:00,
2013-03-25 15:00:00,32.0,15.9,29.80,ENE,68,8.3,13.2,51,0.00,,,0.00,VWS V12.08,2013-03-25 14:00:00,
2013-03-25 15:05:00,31.6,16.5,29.80,NNE,31,11.0,11.0,53,0.00,,,0.00,VWS V12.08,2013-03-25 14:05:00,
2013-03-25 15:10:00,31.1,16.8,29.80,North,11,3.1,13.2,55,0.00,,,0.00,VWS V12.08,2013-03-25 14:10:00,
2013-03-25 15:15:00,30.9,17.5,29.80,ESE,102,7.2,12.8,57,0.00,,,0.00,VWS V12.08,2013-03-25 14:15:00,
2013-03-25 15:20:00,30.4,17.4,29.80,East,96,4.5,12.8,58,0.00,,,0.00,VWS V12.08,2013-03-25 14:20:00,
2013-03-25 15:24:00,30.2,17.6,29.80,East,95,6.3,8.3,59,0.00,,,0.00,VWS V12.08,2013-03-25 14:24:00,
2013-03-25 15:29:00,30.0,17.8,29.80,ENE,70,5.8,10.5,60,0.00,,,0.00,VWS V12.08,2013-03-25 14:29:00,
2013-03-25 15:34:00,30.0,18.2,29.80,ENE,62,5.8,7.2,61,0.00,,,0.00,VWS V12.08,2013-03-25 14:34:00,
2013-03-25 15:39:00,29.8,18.4,29.80,ENE,65,8.3,10.1,62,0.00,,,0.00,VWS V12.08,2013-03-25 14:39:00,
2013-03-25 15:44:00,29.8,18.8,29.80,ENE,64,12.8,12.8,63,0.00,,,0.00,VWS V12.08,2013-03-25 14:44:00,
2013-03-25 15:49:00,29.8,19.5,29.77,NNE,25,5.4,12.8,65,0.00,,,0.00,VWS V12.08,2013-03-25 14:49:00,
2013-03-25 15:54:00,29.8,19.9,29.77,East,83,5.8,10.1,66,0.00,,,0.00,VWS V12.08,2013-03-25 14:54:00,
2013-03-25 15:59:00,29.8,20.2,29.77,SE,135,5.8,10.5,67,0.00,,,0.00,VWS V12.08,2013-03-25 14:59:00,
2013-03-25 16:04:00,30.0,20.8,29.77,North,0,8.1,12.8,68,0.00,,,0.00,VWS V12.08,2013-03-25 15:04:00,
2013-03-25 16:09:00,30.0,21.1,29.77,ESE,103,8.1,12.8,69,0.00,,,0.00,VWS V12.08,2013-03-25 15:09:00,
2013-03-25 16:14:00,30.0,21.4,29.77,NE,49,6.3,10.5,70,0.00,,,0.00,VWS V12.08,2013-03-25 15:14:00,
2013-03-25 16:19:00,30.0,21.4,29.77,NNE,23,8.1,11.0,70,0.00,,,0.00,VWS V12.08,2013-03-25 15:19:00,
2013-03-25 16:24:00,30.2,21.9,29.77,North,0,10.5,10.5,71,0.00,,,0.00,VWS V12.08,2013-03-25 15:24:00,
2013-03-25 16:29:00,30.2,21.9,29.77,ESE,103,11.0,12.8,71,0.00,,,0.00,VWS V12.08,2013-03-25 15:29:00,
2013-03-25 16:34:00,30.2,22.3,29.77,NNE,31,5.8,10.1,72,0.00,,,0.00,VWS V12.08,2013-03-25 15:34:00,
2013-03-25 16:39:00,30.2,22.6,29.77,ENE,65,5.4,12.8,73,0.00,,,0.00,VWS V12.08,2013-03-25 15:39:00,
2013-03-25 16:44:00,30.2,22.6,29.77,North,6,8.7,12.8,73,0.00,,,0.00,VWS V12.08,2013-03-25 15:44:00,
2013-03-25 16:49:00,30.2,22.9,29.74,NE,37,6.3,12.8,74,0.00,,,0.00,VWS V12.08,2013-03-25 15:49:00,
2013-03-25 16:54:00,30.2,23.2,29.74,North,4,4.0,14.5,75,0.00,,,0.00,VWS V12.08,2013-03-25 15:54:00,
2013-03-25 16:59:00,30.4,23.4,29.74,NE,45,5.8,16.8,75,0.00,,,0.00,VWS V12.08,2013-03-25 15:59:00,
2013-03-25 17:04:00,30.4,23.7,29.74,NNE,31,11.0,11.9,76,0.00,,,0.00,VWS V12.08,2013-03-25 16:04:00,
2013-03-25 17:09:00,30.4,23.7,29.74,ENE,61,10.5,12.3,76,0.00,,,0.00,VWS V12.08,2013-03-25 16:09:00,
2013-03-25 17:14:00,30.6,24.2,29.74,NNE,30,6.3,14.1,77,0.00,,,0.00,VWS V12.08,2013-03-25 16:14:00,
2013-03-25 17:19:00,30.6,24.2,29.74,NNE,30,6.3,14.1,77,0.00,,,0.00,VWS V12.08,2013-03-25 16:19:00,
2013-03-25 17:24:00,30.4,24.4,29.74,ENE,61,9.2,10.5,78,0.00,,,0.00,VWS V12.08,2013-03-25 16:24:00,
2013-03-25 17:29:00,30.4,24.4,29.74,ESE,109,5.8,11.0,78,0.00,,,0.00,VWS V12.08,2013-03-25 16:29:00,
2013-03-25 17:34:00,30.4,24.7,29.74,NE,50,6.3,11.9,79,0.00,,,0.00,VWS V12.08,2013-03-25 16:34:00,
2013-03-25 17:39:00,30.4,24.7,29.74,NNE,28,5.4,11.9,79,0.00,,,0.00,VWS V12.08,2013-03-25 16:39:00,
2013-03-25 17:44:00,30.4,25.0,29.74,NNE,31,5.4,13.2,80,0.00,,,0.00,VWS V12.08,2013-03-25 16:44:00,
2013-03-25 17:49:00,30.4,25.0,29.74,NNE,31,8.1,13.2,80,0.00,,,0.00,VWS V12.08,2013-03-25 16:49:00,
2013-03-25 17:54:00,30.4,25.0,29.74,NNE,22,7.6,15.0,80,0.00,,,0.00,VWS V12.08,2013-03-25 16:54:00,
2013-03-25 17:59:00,30.4,25.3,29.74,NNE,19,9.6,15.0,81,0.00,,,0.00,VWS V12.08,2013-03-25 16:59:00,
2013-03-25 18:04:00,30.4,25.3,29.74,NE,42,4.0,11.0,81,0.00,,,0.00,VWS V12.08,2013-03-25 17:04:00,
2013-03-25 18:09:00,30.4,25.3,29.74,North,11,4.0,11.0,81,0.00,,,0.00,VWS V12.08,2013-03-25 17:09:00,
2013-03-25 18:14:00,30.4,25.5,29.74,NNE,23,4.0,9.6,82,0.00,,,0.00,VWS V12.08,2013-03-25 17:14:00,
2013-03-25 18:19:00,30.4,25.5,29.74,ENE,58,6.3,11.0,82,0.00,,,0.00,VWS V12.08,2013-03-25 17:19:00,
2013-03-25 18:24:00,30.4,25.5,29.74,NE,41,10.1,10.1,82,0.00,,,0.00,VWS V12.08,2013-03-25 17:24:00,
2013-03-25 18:29:00,30.4,25.5,29.74,NE,49,6.3,12.8,82,0.00,,,0.00,VWS V12.08,2013-03-25 17:29:00,
2013-03-25 18:34:00,30.4,25.9,29.74,NE,45,5.8,10.5,83,0.00,,,0.00,VWS V12.08,2013-03-25 17:34:00,
2013-03-25 18:39:00,30.4,25.9,29.74,NE,54,6.3,10.5,83,0.00,,,0.00,VWS V12.08,2013-03-25 17:39:00,
2013-03-25 18:44:00,30.4,25.9,29.74,NE,34,8.3,11.0,83,0.00,,,0.00,VWS V12.08,2013-03-25 17:44:00,
2013-03-25 18:49:00,30.6,26.0,29.74,ESE,106,7.6,11.0,83,0.00,,,0.00,VWS V12.08,2013-03-25 17:49:00,
2013-03-25 18:54:00,30.6,26.0,29.74,NNW,346,8.3,10.5,83,0.00,,,0.00,VWS V12.08,2013-03-25 17:54:00,
2013-03-25 18:59:00,30.6,26.3,29.74,NNE,27,4.9,10.5,84,0.00,,,0.00,VWS V12.08,2013-03-25 17:59:00,